N5ZPR Weather Reports


time (UTC)temp
C
wind
direction
speed
KPH
gust
KPH
rain 1hr
cm
rain 24hr
cm
rain mn
cm
humidity
%
barometer
mb
20260505224003 32 166 3.2 8.0 0.00 0.00 0.00 56 1001.4
20260505222004 32 156 3.2 8.0 0.00 0.00 0.00 54 1001.2
20260505221003 32 238 4.8 11.3 0.00 0.00 0.00 53 1001.2
20260505220003 33 218 4.8 11.3 0.00 0.00 0.00 50 1001.2
20260505215004 33 159 1.6 8.0 0.00 0.00 0.00 50 1001.2
20260505214003 32 229 3.2 11.3 0.00 0.00 0.00 50 1001.4
20260505213003 32 220 3.2 9.7 0.00 0.00 0.00 53 1001.4
20260505212004 32 211 4.8 9.7 0.00 0.00 0.00 53 1001.4
20260505211003 32 224 8.0 12.9 0.00 0.00 0.00 52 1002.2
20260505205003 32 208 4.8 9.7 0.00 0.00 0.00 52 1002.2
20260505204003 31 212 1.6 12.9 0.00 0.00 0.00 56 1002.2
20260505203003 31 202 4.8 12.9 0.00 0.00 0.00 55 1002.2
20260505201003 31 190 4.8 14.5 0.00 0.00 0.00 56 1002.3
20260505200004 31 222 9.7 14.5 0.00 0.00 0.00 54 1002.3
20260505195003 31 223 3.2 19.3 0.00 0.00 0.00 58 1002.3
20260505193003 30 154 8.0 16.1 0.00 0.00 0.00 61 1002.5
20260505192004 30 179 9.7 16.1 0.00 0.00 0.00 61 1002.9
20260505191003 30 165 6.4 19.3 0.00 0.00 0.00 62 1002.9
20260505190004 30 183 9.7 24.1 0.00 0.00 0.00 62 1002.9
20260505185004 30 214 8.0 16.1 0.00 0.00 0.00 63 1002.9
20260505184004 29 191 8.0 22.5 0.00 0.00 0.00 63 1002.9
20260505182004 29 234 8.0 19.3 0.00 0.00 0.00 63 1002.9
20260505181004 29 200 4.8 19.3 0.00 0.00 0.00 66 1002.9
20260505180003 28 161 8.0 14.5 0.00 0.00 0.00 66 1003.0
20260505175004 28 211 9.7 19.3 0.00 0.00 0.00 66 1003.0
20260505174003 28 201 8.0 25.7 0.00 0.00 0.00 68 1003.3
20260505172003 27 175 8.0 14.5 0.00 0.00 0.00 68 1003.3
20260505171004 27 213 4.8 19.3 0.00 0.00 0.00 69 1003.3
20260505170003 27 194 4.8 19.3 0.00 0.00 0.00 69 1002.8
20260505165004 27 183 9.7 32.2 0.00 0.00 0.00 67 1002.8
20260505164003 27 215 8.0 19.3 0.00 0.00 0.00 70 1002.8
20260505163004 27 172 8.0 19.3 0.00 0.00 0.00 70 1002.8
20260505162003 26 191 8.0 19.3 0.00 0.00 0.00 72 1002.8
20260505161003 26 178 8.0 16.1 0.00 0.00 0.00 73 1002.8
20260505153004 25 172 9.7 19.3 0.00 0.00 0.00 76 1003.1
20260505152004 25 190 8.0 19.3 0.00 0.00 0.00 76 1002.9
20260505125004 21 255 4.8 19.3 0.00 0.00 0.00 88 1002.1
20260505124003 21 195 6.4 16.1 0.00 0.00 0.00 88 1002.1
20260505123003 21 195 8.0 16.1 0.00 0.00 0.00 88 1002.1
20260505122003 21 209 4.8 14.5 0.00 0.00 0.00 89 1002.1
20260505121004 21 210 4.8 16.1 0.00 0.00 0.00 89 1001.8
20260505120004 20 211 6.4 16.1 0.00 0.00 0.00 89 1001.8
20260505115003 20 168 4.8 19.3 0.00 0.00 0.00 89 1001.8
20260505114004 20 241 3.2 19.3 0.00 0.00 0.00 89 1001.8
20260505113003 20 205 8.0 19.3 0.00 0.00 0.00 89 1001.8
20260505112003 21 185 4.8 16.1 0.00 0.00 0.00 88 1001.8
20260505111003 21 184 9.7 19.3 0.00 0.00 0.00 89 1001.6
20260505101003 21 163 8.0 16.1 0.00 0.00 0.00 87 1001.7
20260505100004 21 214 8.0 16.1 0.00 0.00 0.00 86 1001.7
20260505095003 21 170 8.0 19.3 0.00 0.00 0.00 86 1001.7
20260505094003 21 196 4.8 22.5 0.00 0.00 0.00 86 1001.9
20260505093004 21 156 8.0 16.1 0.00 0.00 0.00 86 1002.2
20260505091003 21 196 8.0 20.9 0.00 0.00 0.00 86 1002.2
20260505090004 21 194 8.0 19.3 0.00 0.00 0.00 86 1002.2
20260505083004 21 171 6.4 19.3 0.00 0.00 0.00 85 1002.1
20260505082003 21 192 6.4 19.3 0.00 0.00 0.00 85 1002.1
20260505081003 21 176 8.0 19.3 0.00 0.00 0.00 85 1002.2
20260505080004 21 170 4.8 19.3 0.00 0.00 0.00 84 1002.5
20260505075003 21 202 6.4 16.1 0.00 0.00 0.00 84 1002.7
20260505074004 21 179 8.0 14.5 0.00 0.00 0.00 83 1002.7
20260505070004 22 174 3.2 16.1 0.00 0.00 0.00 81 1003.4
20260505065003 22 195 4.8 14.5 0.00 0.00 0.00 81 1003.3
20260505064003 22 145 6.4 14.5 0.00 0.00 0.00 80 1003.3
20260505063004 22 247 8.0 16.1 0.00 0.00 0.00 80 1003.3
20260505061004 22 174 4.8 14.5 0.00 0.00 0.00 78 1003.3
20260505060004 22 169 3.2 16.1 0.00 0.00 0.00 77 1003.3
20260505055004 22 194 8.0 19.3 0.00 0.00 0.00 76 1003.3
20260505054003 22 170 8.0 14.5 0.00 0.00 0.00 75 1003.3
20260505053003 23 181 8.0 14.5 0.00 0.00 0.00 75 1003.7
20260505052003 23 150 6.4 16.1 0.00 0.00 0.00 74 1003.7
20260505051004 23 165 4.8 14.5 0.00 0.00 0.00 73 1003.8
20260505041003 23 172 4.8 19.3 0.00 0.00 0.00 73 1004.0
20260505040004 23 199 8.0 14.5 0.00 0.00 0.00 73 1004.0
20260505035003 23 174 4.8 16.1 0.00 0.00 0.00 73 1004.0
20260505034004 23 134 8.0 19.3 0.00 0.00 0.00 73 1003.8
20260505032003 23 157 8.0 19.3 0.00 0.00 0.00 73 1003.9
20260505031004 23 175 3.2 14.5 0.00 0.00 0.00 73 1003.9
20260505025003 23 153 4.8 14.5 0.00 0.00 0.00 73 1003.5
20260505024003 23 131 4.8 11.3 0.00 0.00 0.00 72 1003.5
20260505023004 23 131 6.4 14.5 0.00 0.00 0.00 72 1003.5
20260505022004 23 112 4.8 12.9 0.00 0.00 0.00 71 1003.5
20260505021003 23 136 4.8 12.9 0.00 0.00 0.00 70 1003.6
20260505020003 23 168 3.2 12.9 0.00 0.00 0.00 70 1003.6
20260505015004 23 145 4.8 14.5 0.00 0.00 0.00 70 1003.6
20260505012004 24 137 3.2 11.3 0.00 0.00 0.00 68 1003.9
20260505011004 24 163 6.4 19.3 0.00 0.00 0.00 67 1003.9
20260505010004 24 178 4.8 16.1 0.00 0.00 0.00 67 1003.9
20260505005005 25 182 4.8 14.5 0.00 0.00 0.00 66 1003.9
20260505004004 25 176 8.0 22.5 0.00 0.00 0.00 66 1003.9
20260505003003 25 131 8.0 14.5 0.00 0.00 0.00 66 1003.9
20260505002003 25 166 4.8 19.3 0.00 0.00 0.00 65 1003.9
20260505001003 25 148 4.8 20.9 0.00 0.00 0.00 65 1003.9
20260505000004 25 187 9.7 19.3 0.00 0.00 0.00 64 1004.1
20260504234004 26 132 4.8 19.3 0.00 0.00 0.00 63 1004.2
20260504232003 26 130 6.4 20.9 0.00 0.00 0.00 63 1004.3
20260504231004 26 179 3.2 19.3 0.00 0.00 0.00 62 1004.4
20260504230004 26 164 8.0 19.3 0.00 0.00 0.00 61 1004.4
20260504225004 26 186 8.0 19.3 0.00 0.00 0.00 60 1005.0